Location: 5810 Zion Rd, Cleves, OH 45002, USA
(39.1922°N, 84.7113°W)
Time: 23:30:21
(UTC-05:00)

Courier 1B Rocket - Pass Details

Date: 09 December 2019
Orbit: 920 x 1202 km, 28.2° (Epoch: 18 January)

Event Time Altitude Azimuth Distance (km) Brightness Sun altitude
Rises 11:22:49 0° 259° (WSW) 3,603 7.9 25.9°
Reaches altitude 10° 11:26:06 10° 244° (WSW) 2,629 7.5 26.1°
Maximum altitude 11:30:39 21° 197° (SSW) 1,929 7.8 26.4°
Drops below altitude 10° 11:35:10 10° 150° (SSE) 2,601 8.8 26.6°
Sets 11:38:24 0° 134° (SE) 3,553 8.8 26.8°
